Regional Weather Roundup
Issued by NWS Newport/Morehead, NC

Current Version | Previous Version | Graphics & Text | Print | Product List | Glossary On
Versions: 1 2 3 4 5 6 7 8 9 10 11 12 13 14 15 16 17 18 19 20 21 22 23 24 25 26 27 28 29 30 31 32 33 34 35 36 37 38 39 40 41 42 43 44 45 46 47 48 49 50
949 ASUS42 KMHX 200625 RWRMHX WEATHER ROUNDUP FOR EASTERN NORTH CAROLINA NATIONAL WEATHER SERVICE NEWPORT/MOREHEAD CITY NC 200 AM EDT SUN AUG 20 2017 NOTE: "FAIR" INDICATES FEW OR NO CLOUDS BELOW 12,000 FEET WITH NO SIGNIFICANT WEATHER AND/OR OBSTRUCTIONS TO VISIBILITY NCZ015>017-031-032-045>047-102-103-200700- NORTH COAST CITY SKY/WX TMP DP RH WIND PRES REMARKS EDENTON CLEAR 78 74 88 CALM 30.00S ELIZABETH CITY CLEAR 75 75 100 CALM 29.99S KITTY HAWK CLEAR 76 75 97 CALM 29.98S MANTEO CLEAR 77 75 93 W6 30.00S $$ NCZ045>047-081-094-103-104-200700- CENTRAL COAST CITY SKY/WX TMP DP RH WIND PRES REMARKS FRISCO CLEAR 79 77 94 SW6 30.00S $$ NCZ095-097-098-100-101-200700- SOUTHERN COAST CITY SKY/WX TMP DP RH WIND PRES REMARKS BEAUFORT PTCLDY 77 77 100 CALM 30.00S CEDAR ISLAND NOT AVBL JACKSONVILLE PTCLDY 75 75 100 CALM 30.00R PINEY ISLAND CLEAR N/A N/A N/A SW5 30.00R WILMINGTON PTCLDY 76 75 97 CALM 29.99S $$ NCZ011>013-027>030-043-044-078>080-089-090>093-098-200700- COASTAL PLAIN CITY SKY/WX TMP DP RH WIND PRES REMARKS AHOSKIE N/A 72 71 99 CALM 30.00S FOG CLINTON PTCLDY 73 73 100 CALM 30.00F ELIZABETHTOWN NOT AVBL GOLDSBORO CLEAR 74 74 100 CALM 30.00R GREENVILLE CLEAR 73 72 94 CALM 30.02S HAVELOCK CLEAR 75 73 93 CALM 30.01S KENANSVILLE MOCLDY 72 72 100 CALM 30.00S KINSTON CLEAR 72 72 98 CALM 30.01S FOG NEW BERN CLEAR 73 73 100 CALM 30.01S RICHLANDS PTCLDY 72 72 100 CALM 30.00F ROCKY MOUNT CLEAR 73 73 100 CALM 30.00S FOG WASHINGTON PTCLDY 73 72 96 CALM 30.01S WHITEVILLE MOCLDY 75 74 97 CALM 29.99S $$ AMZ130-135-150-152-154-156-158-170-250-252-270-ANZ085-086-088-633-658-670-200700- MARINE OBSERVATIONS STATION/POSITION TIME TEMP WIND PRES WAVE SWELL AIR SEA DIR/SP/G HT/PER HT/PER (UTC) (F) (DEG/KT/KT) (MB) (FT/S) (FT/S) CHESAPEAKE LIGHT NOT AVBL 64 E VA BEACH 0450 79 79 240/ 8/ 8 1015.6 3/ 6 3/ 6 DUCK 0600 79 70 250/ 9/ 10 1015.0 2 E DUCK 0600 78 N/A 1/ 9 OREGON INLET 0600 80 77 220/ 8/ 11 1015.4 13E OREGON INLT 0548 79 N/A 2/ 6 2/ 6 HATTERAS CG 0600 78 79 260/ 4/ 6 1015.7 DIAMOND BUOY 0450 83 83 210/ 12/ 14 1015.5 3/ 9 2/ 9 CAPE LOOKOUT 0500 81 230/ 3/ 4 1015.6 BEAUFORT LAB 0600 80 82 230/ 2/ 3 1015.2 30 SE NEW RVR IN 0608 81 83 240/ 10/ 14 1015.9 30 SE NEW RVR IN 0613 83 N/A 3/ 6 27 SE WRIGHTSVLE 0608 83 84 220/ 12/ 17 1015.7 5 SE WRIGHTSVLE 0608 83 83 220/ 14/ 19 1015.4 225 S CAPE HAT 0450 83 84 180/ 12/ 14 1017.7 4/ 8 3/ 8 41 SE CHARLESTON 0540 84 84 210/ 12/ 14 1015.7 $$

USA.gov is the U.S. government's official web portal to all federal, state and local government web resources and services.